Total_Precipitation_Accumulation
0.79 0.87 0.96 1.07 1.23 1.30 1.29 1.33 1.29 1.26 1.28 1.31 1.32 1.34 1.31 1.26 1.28 1.36 1.31 1.40 1.48 1.58 1.58 1.53 1.53 1.67 1.70 1.59 1.62 1.66 1.81 2.01 1.98 1.87 2.02 2.06 1.93 1.71 1.66 1.67 1.62 1.56 1.37
0.71 0.80 0.91 1.00 1.10 1.21 1.19 1.25 1.34 1.32 1.30 1.28 1.31 1.39 1.31 1.30 1.33 1.26 1.27 1.35 1.46 1.53 1.63 1.77 1.78 1.80 1.76 1.68 1.74 1.77 1.90 2.13 2.15 2.03 2.01 2.04 1.97 1.85 1.73 1.55 1.37 1.33 1.34
0.76 0.87 0.90 0.88 0.96 1.10 1.17 1.20 1.27 1.34 1.37 1.34 1.29 1.31 1.35 1.38 1.38 1.26 1.23 1.26 1.25 1.25 1.39 1.66 1.91 2.15 2.05 1.89 1.83 1.80 1.87 1.98 2.16 2.04 1.99 2.13 2.10 1.97 1.81 1.56 1.38 1.33 1.16
0.70 0.76 0.84 0.88 1.02 1.16 1.21 1.22 1.26 1.29 1.34 1.40 1.41 1.41 1.39 1.38 1.36 1.35 1.37 1.33 1.27 1.21 1.25 1.36 1.51 1.73 1.91 2.02 1.87 1.73 1.76 1.89 2.05 2.10 2.19 2.43 2.49 2.31 1.99 1.74 1.61 1.46 1.30
0.84 0.93 1.01 1.04 1.12 1.25 1.34 1.31 1.36 1.38 1.39 1.54 1.61 1.58 1.53 1.49 1.38 1.44 1.53 1.42 1.43 1.36 1.33 1.31 1.26 1.35 1.49 1.65 1.67 1.80 1.84 1.85 1.98 2.10 2.32 2.73 2.75 2.48 2.04 1.81 1.73 1.66 1.45
1.21 1.31 1.31 1.35 1.40 1.43 1.45 1.43 1.50 1.58 1.75 1.82 1.77 1.73 1.70 1.52 1.56 1.53 1.50 1.52 1.59 1.58 1.54 1.49 1.37 1.27 1.29 1.37 1.43 1.53 1.70 1.77 1.85 1.97 2.18 2.49 2.61 2.47 2.19 1.95 1.74 1.60 1.46
1.22 1.36 1.43 1.45 1.47 1.55 1.56 1.59 1.64 1.72 1.80 1.90 1.98 1.96 1.90 1.93 1.81 1.52 1.47 1.50 1.60 1.65 1.73 1.76 1.48 1.26 1.33 1.29 1.37 1.38 1.39 1.49 1.60 1.71 1.93 2.14 2.44 2.53 2.37 2.00 1.82 1.67 1.44
1.34 1.45 1.58 1.61 1.65 1.69 1.68 1.63 1.64 1.70 1.70 1.68 1.68 1.66 1.69 1.68 1.61 1.38 1.30 1.24 1.38 1.47 1.48 1.48 1.46 1.33 1.23 1.24 1.26 1.21 1.16 1.17 1.22 1.27 1.41 1.68 1.97 2.32 2.50 2.28 2.09 1.90 1.65
1.53 1.70 1.83 1.91 1.97 1.90 1.81 1.80 1.76 1.73 1.59 1.51 1.47 1.46 1.47 1.51 1.46 1.28 1.20 1.13 1.20 1.24 1.23 1.24 1.28 1.20 1.18 1.05 1.01 1.04 1.02 0.99 0.96 0.98 1.04 1.21 1.47 1.79 2.13 2.26 1.99 1.67 1.52
1.50 1.62 1.79 1.89 2.04 2.12 2.07 2.03 1.93 1.85 1.77 1.69 1.63 1.60 1.58 1.63 1.66 1.41 1.28 1.20 1.28 1.30 1.36 1.36 1.31 1.16 1.10 0.93 0.86 0.92 0.88 0.81 0.82 0.80 0.79 0.85 0.97 1.24 1.60 1.75 1.80 1.56 1.33
1.36 1.38 1.54 1.74 1.93 2.05 2.13 2.06 2.03 1.96 1.88 1.72 1.58 1.54 1.56 1.64 1.71 1.52 1.37 1.20 1.26 1.37 1.45 1.51 1.45 1.29 0.99 0.81 0.72 0.72 0.70 0.71 0.75 0.77 0.76 0.80 0.92 1.09 1.25 1.47 1.62 1.55 1.31
1.48 1.59 1.68 1.78 1.78 1.77 1.85 1.88 1.92 1.90 1.82 1.68 1.48 1.32 1.29 1.30 1.31 1.31 1.14 1.03 1.07 1.19 1.34 1.46 1.46 1.32 1.05 0.85 0.71 0.62 0.58 0.55 0.60 0.66 0.68 0.67 0.73 0.85 1.04 1.30 1.50 1.50 1.36
1.71 1.74 1.76 1.81 1.82 1.83 1.77 1.71 1.67 1.59 1.47 1.36 1.22 1.20 1.19 1.16 1.11 1.01 0.84 0.75 0.79 0.90 1.06 1.32 1.41 1.29 1.13 0.95 0.84 0.76 0.65 0.55 0.56 0.58 0.54 0.53 0.58 0.70 0.91 1.24 1.59 1.72 1.63
1.64 1.56 1.51 1.49 1.51 1.56 1.59 1.54 1.51 1.47 1.42 1.33 1.22 1.22 1.19 1.16 1.06 0.97 0.89 0.80 0.81 0.88 0.92 1.08 1.21 1.22 1.10 1.01 0.91 0.78 0.65 0.61 0.58 0.58 0.57 0.60 0.68 0.78 0.91 1.06 1.40 1.66 1.70
1.62 1.55 1.52 1.51 1.48 1.51 1.56 1.63 1.52 1.45 1.41 1.32 1.23 1.28 1.27 1.19 1.16 1.11 1.05 0.99 0.96 0.99 0.96 1.01 1.12 1.22 1.22 1.17 1.14 1.03 0.91 0.83 0.74 0.69 0.74 0.75 0.80 0.86 0.90 1.00 1.22 1.42 1.42
1.66 1.55 1.54 1.58 1.61 1.61 1.60 1.63 1.67 1.51 1.46 1.34 1.27 1.25 1.26 1.18 1.08 0.94 0.90 0.87 0.79 0.74 0.70 0.81 0.99 1.14 1.27 1.31 1.34 1.28 1.16 1.05 0.94 0.91 0.92 0.90 0.89 0.94 0.96 0.99 1.14 1.30 1.31
1.67 1.62 1.58 1.56 1.59 1.59 1.52 1.48 1.54 1.48 1.32 1.23 1.19 1.12 1.07 0.99 0.85 0.76 0.72 0.70 0.64 0.57 0.52 0.68 0.84 0.98 1.16 1.30 1.34 1.30 1.22 1.19 1.19 1.16 1.14 1.10 1.04 1.02 1.06 1.03 1.05 1.18 1.24
1.62 1.65 1.61 1.55 1.52 1.51 1.47 1.45 1.43 1.42 1.31 1.16 1.07 0.99 0.92 0.85 0.82 0.79 0.73 0.68 0.62 0.57 0.54 0.69 0.84 0.97 1.11 1.27 1.31 1.29 1.30 1.31 1.30 1.25 1.25 1.25 1.22 1.17 1.16 1.12 1.08 1.08 1.17
1.34 1.32 1.33 1.36 1.38 1.35 1.27 1.22 1.17 1.14 1.12 1.11 0.98 0.82 0.81 0.77 0.84 0.90 0.78 0.69 0.70 0.68 0.68 0.73 0.79 0.89 1.05 1.21 1.33 1.36 1.39 1.37 1.35 1.35 1.33 1.33 1.36 1.31 1.21 1.20 1.23 1.22 1.18
1.10 1.18 1.11 1.04 1.05 1.06 1.03 0.97 0.93 0.93 0.97 1.04 1.00 0.83 0.75 0.76 0.88 1.00 0.86 0.85 0.87 0.82 0.80 0.81 0.81 0.87 1.04 1.21 1.34 1.43 1.47 1.43 1.37 1.37 1.37 1.37 1.37 1.36 1.28 1.27 1.35 1.33 1.19
0.88 0.85 0.85 0.75 0.76 0.86 0.92 0.88 0.84 0.88 0.94 1.01 0.95 0.77 0.69 0.71 0.95 1.04 0.97 0.94 0.92 0.87 0.87 0.84 0.79 0.83 0.99 1.15 1.26 1.36 1.45 1.45 1.38 1.35 1.41 1.45 1.37 1.33 1.28 1.30 1.34 1.38 1.32
0.61 0.58 0.56 0.53 0.59 0.66 0.69 0.75 0.83 0.89 0.93 0.95 0.88 0.75 0.73 0.77 0.96 1.02 0.95 0.94 0.93 0.89 0.85 0.83 0.81 0.83 0.94 1.08 1.16 1.26 1.40 1.41 1.36 1.35 1.41 1.50 1.44 1.35 1.32 1.31 1.32 1.40 1.44
0.51 0.50 0.48 0.49 0.55 0.55 0.58 0.67 0.82 0.90 0.92 0.91 0.88 0.85 0.84 0.88 0.93 0.95 0.92 0.87 0.86 0.89 0.90 0.92 0.93 0.93 0.98 1.08 1.13 1.20 1.35 1.35 1.30 1.31 1.37 1.42 1.41 1.37 1.35 1.31 1.30 1.37 1.42
0.45 0.47 0.46 0.44 0.44 0.48 0.54 0.59 0.64 0.70 0.76 0.79 0.80 0.80 0.80 0.81 0.84 0.85 0.85 0.84 0.86 0.87 0.90 0.97 0.99 1.00 1.03 1.07 1.08 1.09 1.18 1.18 1.11 1.09 1.13 1.22 1.26 1.28 1.29 1.27 1.23 1.25 1.31
0.45 0.49 0.51 0.52 0.49 0.50 0.53 0.57 0.61 0.63 0.67 0.69 0.71 0.75 0.78 0.78 0.81 0.84 0.87 0.89 0.88 0.88 0.86 0.86 0.90 0.93 0.91 0.88 0.90 0.92 1.00 0.96 0.89 0.88 0.97 1.08 1.11 1.12 1.14 1.14 1.16 1.21 1.28
0.52 0.54 0.58 0.62 0.60 0.57 0.60 0.65 0.69 0.69 0.71 0.69 0.72 0.75 0.81 0.85 0.86 0.88 0.89 0.88 0.87 0.88 0.84 0.86 0.89 0.84 0.82 0.80 0.76 0.77 0.76 0.71 0.72 0.76 0.79 0.88 0.98 1.01 1.04 1.07 1.05 1.11 1.17